Regional Weather Roundup
Issued by NWS

Home | Current Version | Previous Version | Graphics & Text | Print | Product List | Glossary On
Versions: 1 2 3 4 5 6 7 8 9 10 11 12 13 14 15 16 17 18 19 20 21 22 23 24 25 26 27 28 29 30 31 32 33 34 35 36 37 38 39 40 41 42 43 44 45 46 47 48 49 50
000
ASUS43 KIND 200459
RWRIN

WEATHER ROUNDUP FOR INDIANA
NATIONAL WEATHER SERVICE INDIANAPOLIS IN
100 AM EDT WED AUG 20 2014

NOTE: "FAIR" INDICATES FEW OR NO CLOUDS BELOW 12,000 FEET WITH NO
SIGNIFICANT WEATHER AND/OR OBSTRUCTIONS TO VISIBILITY.

* - STATION DOES NOT REPORT WEATHER SUCH AS PRECIPITATION OR FOG.

+ - STATION NOT QUALITY CONTROLLED BY THE NATIONAL WEATHER SERVICE.
    USE DATA WITH CAUTION...ESPECIALLY DEWPOINT AND RELATIVE
    HUMIDITY OBSERVATIONS.

INZ001>003-010>013-019-020-200600-
NORTHWEST INDIANA

CITY           SKY/WX    TMP DP  RH WIND       PRES   REMARKS
KNOX *+        CLEAR     67  64  89 SW6       29.79S
MONTICELLO +   PTCLDY    65  64  97 SW3       29.80F
RENSSELAER +   CLEAR     64  64 100 CALM      29.81S
VALPARAISO     PTCLDY    68  65  90 SW5       29.80R

$$

LMZ046-743>745-200600-
SOUTHERN LAKE MICHIGAN

STATION/POSITION TIME  TEMP WIND        PRES
                       AIR  DIR/SP/G
                 (UTC) (F)  (DEG/KT/KT) (MB)
BURNS HARBOR     0400   73  190/  7/  8   N/A
MICHIGAN CITY    0400   74  210/ 10/ 13   N/A

$$

INZ004-005-014>016-021>024-200600-
NORTH CENTRAL INDIANA

CITY           SKY/WX    TMP DP  RH WIND       PRES   REMARKS
GOSHEN         PTCLDY    70  66  87 SW9       29.79S
SOUTH BEND     PTCLDY    72  65  78 SW8       29.78F
WARSAW +       PTCLDY    68  64  88 SW6       29.80S

$$

INZ006>009-017-018-025>027-200600-
NORTHEAST INDIANA

CITY           SKY/WX    TMP DP  RH WIND       PRES   REMARKS
ANGOLA *+      CLEAR     66  57  72 CALM      29.80S
FORT WAYNE     CLOUDY    69  67  93 SW5       29.80F

$$

INZ028-029-035-036-043>045-051>053-200600-
WEST CENTRAL INDIANA

CITY           SKY/WX    TMP DP  RH WIND       PRES   REMARKS
GREENCASTLE +  MOCLDY    64  63  94 CALM      29.85R
LAFAYETTE      PTCLDY    65  64  97 W3        29.81F
TERRE HAUTE    MOCLDY    72  69  90 S5        29.84R

$$

INZ030>032-037>040-046>048-054>057-064-065-200600-
CENTRAL INDIANA

CITY           SKY/WX    TMP DP  RH WIND       PRES   REMARKS
INDIANAPOLIS   CLOUDY    68  62  81 S5        29.83F
-EAGLE CREEK   CLOUDY    66  63  90 CALM      29.83F
KOKOMO *+      MOCLDY    66  63  88 SW7       29.81F
MT COMFORT *+  CLOUDY    66 N/A N/A S6        29.83F
SHELBYVILLE    CLOUDY    70  64  81 SW5       29.85S THUNDER
ZIONSVILLE +   CLOUDY    68  64  84 SW5       29.85S

$$

INZ033-034-041-042-049-050-058-059-200600-
EAST CENTRAL INDIANA

CITY           SKY/WX    TMP DP  RH WIND       PRES   REMARKS
MUNCIE         CLOUDY    71  65  81 SW8       29.81F

$$

INZ060-061-067>069-081>083-085>088-200600-
SOUTHWEST INDIANA

CITY           SKY/WX    TMP DP  RH WIND       PRES   REMARKS
EVANSVILLE     CLEAR     75  69  81 SW3       29.85R

$$

INZ062-063-066-070>080-084-089>092-200600-
SOUTH CENTRAL AND SOUTHEAST INDIANA

CITY           SKY/WX    TMP DP  RH WIND       PRES   REMARKS
BLOOMINGTON    TSTM      70  66  87 NW8       29.87S FOG

$$



USA.gov is the U.S. government's official web portal to all federal, state and local government web resources and services.